Location: Newark
(43.5831°N, 21.3381°E)
Time: 22:01:41
(UTC+00:00)

N. Korean satellite - Visible Passes

Search period start: 15 December 2019 00:00
Search period end: 25 December 2019 00:00
Orbit: 455 x 507 km, 97.2° (Epoch: 14 December)

Date Brightness Start Highest point End Pass type
(mag) Time Alt. Az. Time Alt. Az. Time Alt. Az.
15 Dec 6.5 04:28:21 10° NNE 04:31:52 83° E 04:35:18 10° S visible
15 Dec 9.8 16:39:21 10° SW 16:41:37 16° W 16:43:53 10° NW visible
16 Dec 8.1 04:03:07 10° NNE 04:06:22 36° E 04:09:35 10° SSE visible
16 Dec 8.8 16:12:45 10° SSW 16:16:01 30° W 16:19:18 10° NNW visible
17 Dec 9.4 03:38:20 10° NE 03:40:47 18° E 03:43:12 10° SE visible
17 Dec 7.4 05:11:15 10° NNW 05:14:12 26° WNW 05:17:08 10° SW visible
17 Dec 7.1 15:46:53 10° S 15:50:32 64° W 15:54:09 10° NNW visible
18 Dec 6.5 04:45:28 10° N 04:48:53 56° WNW 04:52:14 10° SSW visible
19 Dec 6.9 04:19:59 10° NNE 04:23:27 64° E 04:26:50 10° S visible
19 Dec 9.6 16:30:30 10° SW 16:33:10 19° W 16:35:51 10° NW visible
20 Dec 8.6 03:54:52 10° NE 03:57:55 28° E 04:00:56 10° SSE visible
20 Dec 8.0 05:28:48 10° NNW 05:31:06 17° WNW 05:33:23 10° WSW visible
20 Dec 8.3 16:04:11 10° SSW 16:07:37 37° W 16:11:01 10° NNW visible
21 Dec 9.7 03:30:22 10° ENE 03:32:18 14° E 03:34:12 10° SE visible
21 Dec 7.1 05:02:41 10° N 05:05:50 33° WNW 05:08:55 10° SW visible
21 Dec 6.7 15:38:28 10° S 15:42:08 82° WSW 15:45:45 10° NNW visible
22 Dec 6.3 04:37:00 10° N 04:40:27 73° WNW 04:43:51 10° SSW visible
22 Dec 10.0 16:48:56 10° WSW 16:50:21 12° W 16:51:46 10° WNW visible
23 Dec 7.4 04:11:38 10° NNE 04:14:59 48° E 04:18:18 10° S visible
23 Dec 9.2 16:21:45 10° SSW 16:24:43 23° W 16:27:39 10° NW visible
24 Dec 9.0 03:46:38 10° NE 03:49:26 23° E 03:52:12 10° SSE visible
24 Dec 7.7 05:20:05 10° NNW 05:22:43 21° WNW 05:25:20 10° WSW visible
24 Dec 7.7 15:55:40 10° S 15:59:10 47° W 16:02:39 10° NNW visible
